Location: Miles
(41.4492°N, 81.6087°W)
Time: 22:47:03
(UTC+00:00)

Explorer 11/Cluster Stage 4 - Pass Details

Date: 20 September 2024
Orbit: 464 x 1208 km, 28.8° (Epoch: 06 October)

Event Time Altitude Azimuth Distance (km) Brightness Sun altitude
Exits shadow 08:56:11 10° 161° (SSE) 2,221 8.8 -25.4°
Maximum altitude 08:56:51 10° 153° (SSE) 2,238 8.9 -25.3°
Drops below altitude 10° 08:57:43 10° 144° (SE) 2,306 9.1 -25.2°
Sets 09:03:06 0° 106° (ESE) 3,500 10.6 -24.3°
